Torna al catalogo

HAWK-3A

AttivoMilitarePO
NORAD 48957·PAYLOAD·🇺🇸 United States

Lanciato Jun 30, 2021 da Cape Canaveral Space Force Station

Loading…

Prossimi Passaggi (prossime 24 ore)

TLE

AggiornatoSource: Space-Track

Epoca: Sep 14, 2026, 08:47 UTC

1 48957U 21059CG  26257.36605053  .00050799  00000-0  30797-3 0  9999
2 48957  97.6604 105.9749 0003736  12.5622 347.5735 15.77410253291875

Traccia HAWK-3A in tempo reale con AllMySat

Download on the App Store